Погода Кемерово

Погода Кемерово : погода сейчас, прогноз погоды и архив. Всё, что Вы хотите узнать о погоде Кемерово!

Поиск расширенной информации на нашем сайте:

Другие новости

Новости СМИ2

Главная страница сайта

Новости сайта

02.10.2013

Напоминаем, что на нашем новом сайте вы можете получить высокодетализированные прогнозы погоды по пунктам России, СНГ и мира (включающие важные для авиации метеовеличины, такие как направление и скорость ветра, видимость, явления погоды, количество и форма облачности, нижняя и верхняя граница облачности), а также ознакомиться с разнообразными материалами по авиационной метеорологии и подборкой полезных ссылок на эту тему.

Сайт Метеоцентр.Азия посвящён разработке технологий оптимизации авиаметеорологического обслуживания, включая проектирование и перспективное создание нескольких автоматизированных авиаметеорологических систем:
- система выпуска высокодетальных прогностических карт явлений погоды для нижнего воздушного пространства по России и ближнему зарубежью;
- система верификации прогнозов TAF (выпускаемых синоптиками официальных АМСГ РФ и ближнего зарубежья) и AUTOTAF (выпускаемых сайтом Метеоцентр.Азия) - выявление ошибок, онлайн-сопоставление с фактической погодой METAR, автоматическое внесение коррективов в прогнозы при резком отклонении фактической погоды от прогноза, подсчёт оправдываемости прогнозов по элементам и в целом;
- система обработки, анализа и отображения авиаметеорологической информации для применения провайдерами метеорологической информации.

Рекомендуем: Натяжные потолки какие натяжные потолки купить.

Погода Кемерово - сегодня

Время (UTC), дата Ветер
(°,м/с) 
Видим.   Явления Облачность Т
(°С)
Тd
(°С)
f(%) Тe
(°С)
Pmin
(гПа)
dP
(гПа)
Po
(мм)
O2
(г/м3)
Тmin Tmax R s Состояние
почвы
18 26.05.17 270 (З) 20000 м    6/3 600 м верхняя 
[Sc|Ci fib]
+5.1 -0.8 66 +5  1025.9  1.6  756  299           
21 26.05.17 300 (СЗ) 20000 м    ясно 
+1.5 +0.4 92 +2  1028.3  2.1  757  303           
00 27.05.17 360 (С) 20000 м    6/0 верхняя 
[Ci fib]
+5.1 +2.8 85 +6  1029.4  1.4  758  300  +0.2        сухая 
03 27.05.17 140 (ЮВ) 20000 м    4/0 верхняя 
[Ci fib]
+10.1 -2.1 42 +10  1028.7  -0.4  758  295           
06 27.05.17 120 (ЮВ) 20000 м    8/0 верхняя 
[Ci fib]
+14.6 -0.4 36 +16  1026  -2.5  756  289           
09 27.05.17 230 (ЮЗ) 20000 м    3/0 верхняя 
[Ci fib]
+17.9 -0.2 29 +19  1022.6  -3  754  285           
12 27.05.17 170 (Ю) 20000 м    3/0 верхняя 
[Ci fib]
+18.7 -1.1 26 +20  1020.1  -2.4  752  284    +18.8       
15 27.05.17 тихо ()   20000 м    1/0 верхняя 
[Ci fib]
+10.4 +3.3 61 +10  1019.6  -1  751  291           
18 27.05.17 тихо ()   20000 м    ясно 
+5.6 +2.4 80 +6  1018.3  -1.6  750  296           
21 27.05.17 тихо ()   20000 м    ясно 
+2.3 +1 91 +2  1017.1  -1.4  749  299           
00 28.05.17 тихо ()   20000 м    ясно 
+7.6 +3.5 75 +8  1016  -0.7  749  293  +1.3        сухая 
03 28.05.17 100 (В) 20000 м    4/0 верхняя 
[Ci fib]
+17.3 +3 38 +19  1013.4  -2.1  747  283           
06 28.05.17 130 (ЮВ) 20000 м    8/0 верхняя 
[Cc]
+24 -1.4 18 +24  1010.7  -2.2  745  276           
09 28.05.17 110 (В) 20000 м    8/0 верхняя 
[Ci fib]
+26.3 +0.4 18 +26  1007.7  -2.9  743  273           
12 28.05.17 100 (В) 20000 м    9/3 600 м верхняя 
[Sc|Ci fib]
+25.4 +1 20 +25  1006.2  -1.4  742  273    +27       
15 28.05.17 250 (З) 20000 м    9/4 600 м верхняя 
[Sc|Ci fib]
+17.4 +7 50 +19  1005.8  -0.9  741  280           
18 28.05.17 тихо ()   20000 м    4/0 верхняя 
[Ci fib]
+12.7 +6.2 65 +13  1005.2  -0.9  741  284           
21 28.05.17 тихо ()   20000 м    8/8 600 м 
[Sc]
+10.5 +6.9 78 +11  1004.9  -0.4  740  286           
00 29.05.17 тихо ()   20000 м    9/9 600 м 
[Sc]
+12.6 +8.9 78 +13  1004.2  -0.5  740  283  +9.4        сухая 
03 29.05.17 210 (ЮЗ) 10 км  слаб. ливневой дождь  10/10 600 м кучево-дожд. 
[Cb cap]
+17.1 +11.2 68 +21  1005.3  1.3  741  279           
12 29.05.17 290 (З) 3{10}  20000 м    5/3 600 м верхняя 
[Cu hum|Ci fib]
+25.2 +8 33 +25  1004.3  741  272    +26.5  0.0     
15 29.05.17 тихо ()   20000 м    10/3 600 м верхняя 
[Sc|Ci fib]
+17.2 +11 67 +20  1004.5  -0.2  740  279           
18 29.05.17 тихо ()   20000 м    3/0 верхняя 
[Ci fib]
+11.7 +9.4 86 +12  1004.4  -0.5  740  284           
21 29.05.17 тихо ()   20000 м    10/0 верхняя 
[Ci fib]
+9.7 +8.8 94 +10  1003.5  -1  739  286           
00 30.05.17 тихо ()   20000 м    10/0 средняя, верхняя 
[Ac trans|Ci sp]
+13 +11.1 88 +16  1002.4  -0.9  739  282  +9.5        сухая 
Время (UTC), дата Ветер
(°,м/с) 
Видим.   Явления Облачность Т
(°С)
Тd
(°С)
f(%) Тe
(°С)
Pmin
(гПа)
dP
(гПа)
Po
(мм)
O2
(г/м3)
Тmin Tmax R s Состояние
почвы

Для получения пояснительной информации подведите курсор к названию столбца.

ПОГОДА Кемерово - архив

Всё, что Вы хотите узнать о погоде Кемерово - удобно и подробно!

Выберите нужную дату (начиная с 1 января 2015* года) и нажмите кнопку "Найти".
Будут отображены архивные сводки погоды по пункту Кемерово, начиная с указанной даты.


Отображать данные в формате CSV (для использования в таблицах Excel)


Внимание! Наш архив погоды предназначен исключительно для личного некоммерческого использования в познавательных целях. Если Вам необходимы официальные справки о состоянии погоды (для производственных, юридических, коммерческих и т.п. целей), обращайтесь в органы Росгидромета.

*Примечание: данная дата относится к архиву по метеостанциям СССР (Россия, СНГ, Балтия).
Архив по метеостанциям Зарубежной Европы и Азии (кроме Китая) хранится 10 дней, по другим регионам земного шара (Китай, Африка, Америка, Австралия, Океания) - 1 день.

Кемерово - район местоположения метеостанции


Название, широта, долгота, высота метеостанции:
Кемерово (город) 55.2°ш. 86.1°д. 260 м над ур. моря [Российская Федерация]

Дополнительная информация

В oтличие oт бoльшинства пoгoдных сайтoв мы публикуем пoдрoбную метеoинфoрмацию в детальнoм прoфессиoнальнoм фoрмате.

Характеристики температуры и влажнoсти вoздуха измеряются на высoте 2 м в тени вдали oт зданий и деревьев.
Скoрoсть ветра измеряется на высoте 10 м (на урoвне рoста челoвека скoрoсть ветра ниже в 1.5-2 раза). Если метеoстанция нахoдится в гoрoде или в лесу, тo скoрoсть ветра занижена на 2-4 м/с пo сравнению с oткрытым местoм. Скoрoсть ветра над акватoриями крупных рек и oзёр, а также на вершинах хoлмoв на 2-5 м/с выше, чем в oбычных услoвиях.
Атмoсфернoе давление в разных тoчках местнoсти мoжет значительнo oтличаться oт давления на метеoстанции, в зависимoсти oт услoвий рельефа (при пoдъёме на 10 м давление пoнижается примернo на 1 мм рт.ст.).